User: anonymous
Location: Caltech
(34.1382°N, 118.1253°W)
Time: 20:11:36
(UTC-07:00)
Language:

Iridium 65 - Orbit

View from above orbital plane
View from above orbital plane
View from above satellite
View from above satellite

Ground track
Ground track

The orbit data is extracted from the following two-line orbital elements,

1 25288U 98021D   14294.47233071  .00000331  00000-0  11121-3 0  9549
2 25288 086.3937 269.1736 0002046 104.1258 009.5542 14.34219842866025
Epoch (UTC): 21 October 2014 11:20:09
Eccentricity: 0.0002046
inclination: 86.3937°
perigee height: 776 km
apogee height: 779 km
right ascension of ascending node: 269.1736°
argument of perigee: 104.1258°
revolutions per day: 14.34219842
mean anomaly at epoch: 9.5542°
orbit number at epoch: 86602

The dashed part of the orbit path shows where the satellite is in the earth's shadow,  

DLR